sat.trackr.live / text

‹ back to catalog

STARLINK-31132

NORAD 58777 · 2024-011N

PAYLOAD ACTIVE UNKNOWN

§ Identity

Operator
Country
US
Launch date
2024-01-14
Launch site
AFWTR
Launch vehicle
Mass (kg)
RCS (m²)

Purposes: comms

External: N2YO · Heavens-Above · Gunter

§ Orbital elements

Epoch: 2026-05-24T21:58:18.062112Z

Period
94.01 min
Inclination
53.1603°
Eccentricity
0.0001502
Mean motion
15.31696079 rev/d
Perigee alt
469.7 km
Apogee alt
471.8 km
Semi-major
6,848.9 km
B*
1.5766e-5
RAAN
289.1900°
Arg perigee
69.7645°
Mean anomaly
290.3518°
Rev number
13,323

§ Raw data

STARLINK-311321 58777U 24011N   26144.91548683  .00000124  00000+0  15766-4 0  99982 58777  53.1603 289.1900 0001502  69.7645 290.3518 15.31696079133235

JSON: /api/v1/satellites/58777 · /tle

For live sub-satellite position, see the globe view (requires WebGL).

§ Visibility from observer

Set your observer location to see the next 7 days of passes ≥ 10°. The values pass through the URL so the page stays shareable.

No JS? Fill the form by hand. The geolocation button needs JavaScript.